Bettles, AK

4:04 AM AKDT on August 18, 2017 (GMT -0800)
Bettles

Weather History for PABT - November, 2012

Change the Weather History Date:

Thursday, November 15, 2012

  Actual Average Record
Temperature  
Mean Temperature -10 °F -  
Max Temperature 1 °F 3 °F 39 °F (1976)
Min Temperature -20 °F -8 °F -51 °F (1956)
Degree Days  
Heating Degree Days 74    
Moisture  
Dew Point -17 °F    
Average Humidity 73    
Maximum Humidity 83    
Minimum Humidity 53    
Precipitation  
Precipitation 0.00 in - - ()
Snow  
Snow 0.00 in - - ()
Snow Depth 1.00 in    
Sea Level Pressure  
Sea Level Pressure 30.17 in    
Wind  
Wind Speed 3 mph (North)    
Max Wind Speed 9 mph    
Max Gust Speed -    
Visibility 10 miles    
Events      
Averages and records for this station are not official NWS values.
T = Trace of Precipitation, MM = Missing Value Source: NWS Daily Summary

Daily Weather History Graph

Daily Weather History Graph

Search for Another Location

Airport or City:

Trip Planner

Search our weather history database for the weather conditions in past years. The results will help you decide how hot, cold, wet, or windy it might be!

Date:

Astronomy

Nov. 15, 2012 Rise Set
Actual Time 10:07 AM AKST 3:33 PM AKST
Civil Twilight 8:54 AM AKST 4:46 PM AKST
Nautical Twilight 7:45 AM AKST 5:55 PM AKST
Astronomical Twilight 6:42 AM AKST 6:58 PM AKST
Moon 1:09 PM AKST (11/15) 4:41 PM AKST (11/15)
Length of Visible Light 7h 51m
Length of Day
5h 25m
Waxing Crescent, 6% of the Moon is Illuminated
Nov 15
Waxing Crescent
Nov 20
First Quarter
Nov 28
Full
Dec 6
Last Quarter
Dec 12
New

Hourly Weather History & Observations

Time (AKST) Temp. Windchill Dew Point Humidity Pressure Visibility Wind Dir Wind Speed Gust Speed Precip Events Conditions
12:53 AM -2.0 °F -15.4 °F -9.0 °F 72% 30.08 in 10.0 mi North 6.9 mph - N/A   Clear
1:53 AM -4.9 °F -13.4 °F -9.0 °F 82% 30.10 in 10.0 mi WNW 3.5 mph - N/A   Clear
2:53 AM -4.0 °F -14.6 °F -9.0 °F 79% 30.11 in 10.0 mi NW 4.6 mph - N/A   Clear
3:53 AM -4.9 °F -13.4 °F -9.0 °F 82% 30.12 in 10.0 mi NNW 3.5 mph - N/A   Clear
4:53 AM -4.9 °F -17.4 °F -11.9 °F 72% 30.12 in 10.0 mi NE 5.8 mph - N/A   Clear
5:53 AM -2.0 °F -17.7 °F -13.0 °F 60% 30.11 in 10.0 mi NNE 9.2 mph - N/A   Clear
6:53 AM -7.1 °F -15.9 °F -11.0 °F 83% 30.13 in 10.0 mi North 3.5 mph - N/A   Clear
7:53 AM -9.0 °F -18.2 °F -13.9 °F 79% 30.14 in 10.0 mi NNW 3.5 mph - N/A   Clear
8:53 AM -9.9 °F -19.2 °F -16.1 °F 74% 30.15 in 10.0 mi North 3.5 mph - N/A   Partly Cloudy
9:53 AM -8.0 °F -19.2 °F -15.0 °F 71% 30.16 in 10.0 mi North 4.6 mph - N/A   Partly Cloudy
10:53 AM -11.9 °F - -18.0 °F 74% 30.17 in 10.0 mi Calm Calm - N/A   Partly Cloudy
11:53 AM -9.0 °F -18.2 °F -15.0 °F 75% 30.17 in 10.0 mi NNE 3.5 mph - N/A   Partly Cloudy
12:53 PM -8.0 °F - -17.0 °F 65% 30.18 in 10.0 mi Calm Calm - N/A   Partly Cloudy
1:53 PM -7.1 °F - -16.1 °F 65% 30.18 in 10.0 mi Calm Calm - N/A   Partly Cloudy
2:53 PM -8.0 °F - -16.1 °F 68% 30.17 in 10.0 mi Calm Calm - N/A   Partly Cloudy
3:53 PM -11.9 °F - -18.0 °F 74% 30.18 in 10.0 mi Calm Calm - N/A   Partly Cloudy
4:53 PM -16.1 °F - -20.9 °F 79% 30.19 in 10.0 mi Calm Calm - N/A   Partly Cloudy
5:53 PM -17.0 °F - -22.0 °F 78% 30.19 in 10.0 mi Calm Calm - N/A   Clear
6:53 PM -18.0 °F - -23.1 °F 78% 30.20 in 10.0 mi Calm Calm - N/A   Clear
7:53 PM -20.0 °F - -25.1 °F 78% 30.22 in 10.0 mi Calm Calm - N/A   Clear
8:53 PM -20.0 °F - -26.0 °F 74% 30.25 in 10.0 mi Calm Calm - N/A   Clear
9:53 PM -20.9 °F - -27.0 °F 73% 30.25 in 10.0 mi Calm Calm - N/A   Clear
10:53 PM -20.9 °F - -27.0 °F 73% 30.27 in 10.0 mi Calm Calm - N/A   Clear
11:53 PM -20.9 °F - -25.1 °F 81% 30.27 in 10.0 mi Calm Calm - N/A   Clear